Weather reports worldwide

Advertisment
D15-FA-1, Netherlands (6201): temperature & dewpoint: 14.10.2019 23:00:00 - 20.10.2019 23:00:00 (CEST)D15-FA-1, Netherlands (6201): wind speed & gusts: 14.10.2019 23:00:00 - 20.10.2019 23:00:00 (CEST)D15-FA-1, Netherlands (6201): wind direction: 14.10.2019 23:00:00 - 20.10.2019 23:00:00 (CEST)D15-FA-1, Netherlands (6201): reduced air pressure: 14.10.2019 23:00:00 - 20.10.2019 23:00:00 (CEST)D15-FA-1, Netherlands (6201): visibility: 14.10.2019 23:00:00 - 20.10.2019 23:00:00 (CEST)
Date & Time tt [°C] td [°C] ff [km/h] ff [kn] fx [km/h] fx [kn] dd ppp [hPa] vv [km]
20.10.2019 23:00:00 13,0 9,0 34 18 - - - 1014,4 10
20.10.2019 22:00:00 12,8 8,5 34 18 36 19 NNE 1014,0 10
20.10.2019 21:00:00 12,9 8,8 35 19 36 19 NNE 1013,6 10
20.10.2019 20:00:00 12,9 9,1 31 17 32 18 NNE 1012,9 10
20.10.2019 19:00:00 13,0 8,5 24 13 25 14 NNE 1012,4 10
20.10.2019 18:00:00 12,8 8,5 24 13 25 14 NNE 1011,4 10
20.10.2019 17:00:00 12,8 9,0 24 13 25 14 NNE 1010,6 10
20.10.2019 16:00:00 12,8 8,5 22 12 25 14 N 1010,1 10
20.10.2019 15:00:00 12,6 8,3 22 12 22 12 NNE 1009,4 10
20.10.2019 14:00:00 12,4 9,0 16 9 18 10 NNE 1008,9 10
20.10.2019 13:00:00 12,4 8,8 13 7 14 8 N 1008,1 10
20.10.2019 12:00:00 12,0 8,8 8 4 14 8 WNW 1007,6 10
20.10.2019 11:00:00 11,1 9,0 15 8 22 12 - 1007,0 10
20.10.2019 10:00:00 12,3 8,5 15 8 25 14 - 1006,2 10
20.10.2019 09:00:00 12,0 8,4 26 14 25 14 W 1005,4 10
20.10.2019 08:00:00 11,5 8,3 31 17 32 18 W 1004,8 10
20.10.2019 07:00:00 11,8 8,2 31 17 32 18 W 1004,0 10
20.10.2019 06:00:00 11,7 8,4 35 19 36 19 W 1003,2 10
20.10.2019 05:00:00 12,2 9,6 34 18 32 18 WSW 1002,3 10
20.10.2019 04:00:00 11,9 8,0 34 18 32 18 WSW 1002,2 10
20.10.2019 03:00:00 12,7 7,7 35 19 32 18 SW 1002,2 10
20.10.2019 02:00:00 12,9 7,3 31 17 32 18 WSW 1002,0 10
20.10.2019 01:00:00 12,7 7,4 34 18 32 18 WSW 1001,6 10
20.10.2019 00:00:00 12,3 8,1 29 16 36 19 WSW 1001,3 10
19.10.2019 23:00:00 11,7 7,7 35 19 40 21 W 1000,7 10
19.10.2019 22:00:00 11,7 7,6 29 16 32 18 WSW 1000,2 10
19.10.2019 21:00:00 11,5 7,4 34 18 36 19 W 999,6 10
19.10.2019 20:00:00 11,3 8,0 29 16 36 19 WSW 999,1 10
19.10.2019 19:00:00 11,5 8,0 35 19 43 23 WSW 998,5 10
19.10.2019 18:00:00 12,3 8,0 34 18 32 18 SW 998,3 10
19.10.2019 17:00:00 12,3 7,4 31 17 32 18 SW 998,1 10
19.10.2019 16:00:00 12,5 7,9 24 13 40 21 SW 997,8 10
19.10.2019 15:00:00 12,7 8,8 31 17 36 19 SW 997,8 10
19.10.2019 14:00:00 12,8 8,5 31 17 36 19 SSW 997,7 10
19.10.2019 13:00:00 12,8 8,6 29 16 36 19 SW 997,9 10
19.10.2019 12:00:00 12,8 8,4 29 16 36 19 SW 997,7 10
19.10.2019 11:00:00 12,8 8,8 35 19 36 19 SW 997,5 10
19.10.2019 10:00:00 12,8 9,0 26 14 40 21 SW 997,4 10
19.10.2019 09:00:00 12,8 9,1 29 16 40 21 SSW 996,9 10
19.10.2019 08:00:00 12,8 9,0 29 16 43 23 SW 996,7 10
19.10.2019 07:00:00 12,9 8,9 31 17 43 23 SW 996,7 10
19.10.2019 06:00:00 12,9 8,5 34 18 36 19 SW 996,6 10
19.10.2019 05:00:00 13,1 8,8 35 19 36 19 SW 996,7 10
19.10.2019 04:00:00 13,0 8,9 35 19 50 27 SW 996,9 10
19.10.2019 03:00:00 13,1 8,4 42 23 58 31 SSW 997,0 10
19.10.2019 02:00:00 13,2 9,0 39 21 50 27 SW 997,0 10
19.10.2019 01:00:00 13,2 9,2 42 23 54 29 SW 997,0 10
19.10.2019 00:00:00 13,3 8,8 46 25 47 25 SW 996,8 10
18.10.2019 23:00:00 13,5 8,9 39 21 43 23 WSW 997,0 10
18.10.2019 22:00:00 13,0 8,4 42 23 43 23 SW 997,0 10
18.10.2019 21:00:00 12,9 8,6 42 23 40 21 SW 996,7 10
18.10.2019 20:00:00 12,9 8,2 35 19 47 25 WSW 996,5 10
18.10.2019 19:00:00 13,1 7,0 41 22 40 21 SW 996,3 10
18.10.2019 18:00:00 12,9 8,0 39 21 40 21 WSW 996,2 10
18.10.2019 17:00:00 12,4 8,0 41 22 47 25 WSW 995,9 10
18.10.2019 16:00:00 12,0 7,9 42 23 47 25 W 995,5 10
18.10.2019 15:00:00 12,2 8,4 35 19 40 21 W 994,8 10
18.10.2019 14:00:00 11,3 9,7 28 15 32 18 SW 994,9 3,4
18.10.2019 13:00:00 10,9 9,0 35 19 36 19 SW 995,0 10
18.10.2019 12:00:00 12,7 8,3 24 13 54 29 S 995,6 10
18.10.2019 11:00:00 13,1 10,1 41 22 54 29 S 996,1 10
18.10.2019 10:00:00 14,0 11,6 31 17 32 18 SSE 996,8 10
18.10.2019 09:00:00 13,8 9,6 29 16 32 18 S 997,6 10
18.10.2019 08:00:00 14,0 10,8 21 11 25 14 S 998,1 10
18.10.2019 07:00:00 13,9 10,2 24 13 36 19 S 998,9 10
18.10.2019 06:00:00 13,9 9,6 28 15 40 21 SSW 999,7 10
18.10.2019 05:00:00 14,1 10,6 26 14 29 16 S 1000,4 10
18.10.2019 04:00:00 14,0 9,7 28 15 40 21 SSW 1001,0 10
18.10.2019 03:00:00 14,2 11,0 28 15 40 21 S 1001,8 10
18.10.2019 02:00:00 14,1 10,6 34 18 43 23 SSW 1002,4 10
18.10.2019 01:00:00 13,9 10,4 35 19 47 25 SSW 1002,6 10
18.10.2019 00:00:00 13,9 10,0 46 25 47 25 SW 1002,7 10
17.10.2019 23:00:00 13,7 11,1 37 20 36 19 S 1003,0 10
17.10.2019 22:00:00 12,2 8,3 37 20 47 25 SSE 1003,6 10
17.10.2019 21:00:00 13,5 9,7 29 16 36 19 SSE 1004,4 10
17.10.2019 20:00:00 13,6 7,8 22 12 25 14 S 1005,0 10
17.10.2019 19:00:00 13,7 7,4 24 13 25 14 S 1005,2 10
17.10.2019 18:00:00 13,6 8,0 22 12 25 14 S 1005,5 10
17.10.2019 17:00:00 13,6 7,7 24 13 25 14 S 1005,8 10
17.10.2019 16:00:00 13,6 6,6 18 10 25 14 SSW 1006,1 10
17.10.2019 15:00:00 13,3 6,6 26 14 29 16 SW 1006,5 10
17.10.2019 14:00:00 13,1 5,6 26 14 32 18 SW 1006,6 10
17.10.2019 13:00:00 12,9 6,5 21 11 22 12 SW 1006,6 10
17.10.2019 12:00:00 12,8 6,3 22 12 25 14 SW 1006,8 10
17.10.2019 11:00:00 12,8 5,0 22 12 25 14 SW 1006,6 10
17.10.2019 10:00:00 12,7 5,3 26 14 25 14 W 1006,3 10
17.10.2019 09:00:00 12,5 5,8 26 14 29 16 W 1005,8 10
17.10.2019 08:00:00 12,2 6,0 26 14 25 14 WSW 1005,1 10
17.10.2019 07:00:00 12,1 7,3 21 11 22 12 WSW 1004,5 10
17.10.2019 06:00:00 11,9 7,6 16 9 29 16 W 1004,3 10
17.10.2019 05:00:00 12,3 8,0 22 12 29 16 - 1004,3 10
17.10.2019 04:00:00 12,4 7,8 28 15 32 18 W 1004,1 10
17.10.2019 03:00:00 12,5 8,5 31 17 36 19 W 1003,7 10
17.10.2019 02:00:00 12,8 8,0 37 20 40 21 W 1003,2 10
17.10.2019 01:00:00 13,1 7,9 39 21 40 21 W 1002,7 10
17.10.2019 00:00:00 13,4 8,6 34 18 36 19 - 1002,6 10
16.10.2019 23:00:00 13,5 9,4 34 18 36 19 W 1002,0 10
16.10.2019 22:00:00 13,2 10,0 35 19 36 19 W 1001,3 10
16.10.2019 21:00:00 13,6 12,6 24 13 36 19 W 1000,6 6
16.10.2019 20:00:00 13,6 13,1 29 16 32 18 WSW 1000,2 4,3
16.10.2019 19:00:00 14,4 14,0 29 16 43 23 SW 999,7 9
16.10.2019 18:00:00 14,2 14,2 50 27 50 27 SSE 999,4 7
16.10.2019 17:00:00 13,9 13,6 52 28 54 29 SSE 1000,0 10
16.10.2019 16:00:00 14,1 12,9 52 28 54 29 SSE 1000,7 10
16.10.2019 15:00:00 14,4 12,3 50 27 54 29 S 1001,2 10
16.10.2019 14:00:00 14,6 11,7 48 26 54 29 SSE 1001,8 10
16.10.2019 13:00:00 14,9 11,5 39 21 40 21 SSE 1002,3 10
16.10.2019 12:00:00 14,7 11,1 31 17 32 18 SSE 1002,9 10
16.10.2019 11:00:00 14,4 10,2 29 16 29 16 S 1003,3 10
16.10.2019 10:00:00 13,8 10,5 29 16 36 19 S 1003,4 10
16.10.2019 09:00:00 13,9 11,2 29 16 29 16 S 1003,5 10
16.10.2019 08:00:00 13,9 11,4 31 17 32 18 S 1003,3 10
16.10.2019 07:00:00 14,2 11,5 29 16 32 18 SSE 1003,4 10
16.10.2019 06:00:00 14,0 11,8 28 15 29 16 S 1003,7 10
16.10.2019 05:00:00 13,8 11,4 28 15 29 16 S 1003,8 10
16.10.2019 04:00:00 13,7 10,7 31 17 32 18 SW 1004,0 10
16.10.2019 03:00:00 13,5 10,0 29 16 32 18 SW 1004,2 10
16.10.2019 02:00:00 13,5 8,9 21 11 22 12 SW 1004,5 10
16.10.2019 01:00:00 13,4 8,9 22 12 29 16 SW 1004,8 10
16.10.2019 00:00:00 13,2 8,8 22 12 32 18 SW 1004,8 10
15.10.2019 23:00:00 13,0 9,3 24 13 36 19 SSW 1004,7 10
15.10.2019 22:00:00 12,7 9,9 21 11 22 12 W 1004,6 10
15.10.2019 21:00:00 12,9 8,9 24 13 25 14 WSW 1004,1 10
15.10.2019 20:00:00 13,1 9,7 21 11 25 14 WSW 1003,9 10
15.10.2019 19:00:00 13,1 9,7 28 15 29 16 W 1003,1 10
15.10.2019 18:00:00 13,0 9,6 28 15 32 18 WSW 1002,8 10
15.10.2019 17:00:00 12,9 9,9 31 17 32 18 W 1002,4 10
15.10.2019 16:00:00 12,8 10,5 35 19 40 21 W 1002,0 10
15.10.2019 15:00:00 12,9 10,9 37 20 40 21 WSW 1001,5 10
15.10.2019 14:00:00 12,9 11,0 41 22 43 23 WSW 1001,1 10
15.10.2019 13:00:00 13,6 11,8 41 22 61 33 SW 1000,5 10
15.10.2019 12:00:00 13,2 11,9 54 29 61 33 SW 1000,1 10
15.10.2019 11:00:00 13,1 11,6 55 30 58 31 SW 999,9 10
15.10.2019 10:00:00 13,8 11,9 52 28 58 31 SW 999,3 10
15.10.2019 09:00:00 14,8 13,2 41 22 47 25 SSW 999,3 10
15.10.2019 08:00:00 15,2 13,2 39 21 40 21 S 998,9 10
15.10.2019 07:00:00 15,4 13,8 37 20 40 21 S 998,9 10
15.10.2019 06:00:00 15,5 14,0 37 20 40 21 S 999,1 10
15.10.2019 05:00:00 15,5 14,3 34 18 36 19 S 999,4 10
15.10.2019 04:00:00 15,6 14,7 42 23 47 25 SSE 999,8 8
15.10.2019 03:00:00 15,2 14,6 46 25 43 23 SSE 1000,7 8
15.10.2019 02:00:00 15,0 14,4 37 20 40 21 SE 1000,4 6
15.10.2019 01:00:00 14,8 14,1 42 23 47 25 ESE 1001,6 5
15.10.2019 00:00:00 14,7 13,3 48 26 47 25 ESE 1003,1 10
14.10.2019 23:00:00 14,2 12,5 29 16 40 21 E 1004,7 10

tt = temperature
td = dewpoint
ff = wind speed
fx = gusts
dd = wind direction
ppp = reduced air pressure
vv = visibility

Next stations